Location: Unspecified
(0.0000°N, 0.0000°E)
Time: 07:08:56
(UTC+00:00)

Tiros 1 despin weight - Pass Details

Date: 08 October 2023
Orbit: 583 x 627 km, 48.2° (Epoch: 05 December)

Event Time Altitude Azimuth Distance (km) Brightness Sun altitude
Rises 02:32:43 0° 289° (WNW) 2,787 - -48.4°
Reaches altitude 10° 02:35:51 10° 265° (W) 1,890 - -47.7°
Maximum altitude 02:38:19 15° 230° (SW) 1,599 - -47.0°
Drops below altitude 10° 02:40:47 10° 195° (SSW) 1,897 - -46.4°
Sets 02:43:57 0° 171° (S) 2,804 - -45.6°
